Terminal Aerodrome Forecast
Issued by NWS Grand Forks, ND

Home | Current Version | Previous Version | Graphics & Text | Print | Product List | Glossary On
Versions: 1 2 3 4 5 6 7 8 9 10 11 12 13 14 15 16 17 18 19 20 21 22 23 24 25 26 27
000
FTUS43 KFGF 260142 AAA
TAFGFK
TAF AMD
KGFK 260142Z 2602/2624 28008KT P6SM BKN006
     FM260400 33008KT 5SM BR BKN005
     FM261500 25007KT P6SM BKN010
     FM261700 26011KT P6SM BKN040
     FM262100 26011KT P6SM SCT060=

USA.gov is the U.S. government's official web portal to all federal, state and local government web resources and services.